Location: Newark
(44.6303°N, 123.0961°W)
Time: 08:56:12
(UTC+00:00)

Envisat - Pass Details

Date: 24 January 2020
Orbit: 764 x 766 km, 98.1° (Epoch: 25 February)

Event Time Altitude Azimuth Distance (km) Brightness Sun altitude
Rises 13:30:40 0° 32° (NNE) 3,241 6.6 -22.8°
Reaches altitude 10° 13:34:14 10° 58° (ENE) 2,308 6.2 -22.2°
Maximum altitude 13:36:45 14° 88° (E) 2,055 6.3 -21.7°
Drops below altitude 10° 13:39:16 10° 118° (ESE) 2,299 6.4 -21.3°
Sets 13:42:47 0° 144° (SE) 3,218 6.9 -20.7°
